MAKIL Weather Reports


time (UTC)temp
F
wind
direction
speed
knots
gust
knots
rain 1hr
in
rain 24hr
in
rain mn
in
humidity
%
barometer
mb
20260506152722 45 245 13.0 16.5 0.00 0.00 0.00 66
20260506150721 46 243 13.0 16.5 0.00 0.00 0.00 65
20260506144721 45 244 13.9 19.1 0.00 0.00 0.00 70
20260506142721 45 243 15.6 18.2 0.00 0.00 0.00 67
20260506140721 45 237 15.6 18.2 0.00 0.00 0.00 66
20260506134721 46 241 16.5 18.2 0.00 0.00 0.00 70
20260506132721 45 242 14.8 18.2 0.00 0.00 0.00 64
20260506130720 47 249 17.4 20.0 0.00 0.00 0.00 62
20260506124720 47 244 14.8 19.1 0.00 0.00 0.00 62
20260506122721 47 234 14.8 19.1 0.00 0.00 0.00 63
20260506120720 47 227 15.6 18.2 0.00 0.00 0.00 67
20260506114721 45 226 15.6 19.1 0.00 0.00 0.00 72
20260506112721 46 229 16.5 19.1 0.00 0.00 0.00 73
20260506110721 46 230 15.6 20.9 0.00 0.00 0.00 74
20260506104721 45 225 16.5 20.0 0.00 0.00 0.00 73
20260506102722 46 224 13.0 19.1 0.00 0.00 0.00 71
20260506100722 44 221 13.9 18.2 0.00 0.00 0.00 76
20260506094722 46 224 13.0 16.5 0.00 0.00 0.00 72
20260506092721 45 231 10.4 14.8 0.00 0.00 0.00 76
20260506090721 45 234 12.2 14.8 0.00 0.00 0.00 74
20260506084722 45 237 13.0 14.8 0.00 0.00 0.00 73
20260506082722 46 235 13.0 15.6 0.00 0.00 0.00 72
20260506080721 44 232 9.6 13.9 0.00 0.00 0.00 79
20260506072722 45 230 7.8 11.3 0.00 0.00 0.00 78
20260506070721 44 236 8.7 10.4 0.00 0.00 0.00 75
20260506060721 44 268 7.8 9.6 0.00 0.00 0.00 68
20260506050721 43 266 10.4 12.2 0.00 0.00 0.00 74
20260506044721 42 259 9.6 11.3 0.00 0.00 0.00 72
20260506042721 42 264 12.2 14.8 0.00 0.00 0.00 73
20260506040720 41 266 12.2 13.9 0.00 0.00 0.00 75
20260506034721 41 264 11.3 13.0 0.00 0.00 0.00 77
20260506032720 40 268 11.3 13.0 0.00 0.00 0.00 79
20260506030721 39 268 10.4 11.3 0.00 0.00 0.00 80
20260506024720 39 266 10.4 11.3 0.00 0.00 0.00 79
20260506022720 38 264 8.7 10.4 0.00 0.00 0.00 83
20260506020720 38 271 9.6 10.4 0.00 0.00 0.00 80
20260506014720 38 267 9.6 13.0 0.00 0.00 0.00 81
20260506012720 38 271 9.6 10.4 0.00 0.00 0.00 81
20260506010720 38 279 8.7 9.6 0.00 0.00 0.00 84
20260506004720 38 288 9.6 11.3 0.00 0.00 0.00 82
20260506000720 38 294 13.0 14.8 0.00 0.00 0.00 78
20260505234720 38 295 13.9 14.8 0.00 0.00 0.00 76
20260505232720 39 292 13.0 14.8 0.00 0.00 0.00 79
20260505230720 39 289 13.9 16.5 0.00 0.00 0.00 78
20260505224719 39 289 15.6 17.4 0.00 0.00 0.00 76
20260505222719 40 292 15.6 18.2 0.00 0.00 0.00 76
20260505220720 40 288 17.4 20.0 0.00 0.00 0.00 75
20260505214720 40 284 17.4 20.0 0.00 0.00 0.00 75
20260505212720 40 281 17.4 19.1 0.00 0.00 0.00 73
20260505210719 40 280 17.4 20.0 0.00 0.00 0.00 72
20260505204719 41 281 16.5 19.1 0.00 0.00 0.00 72
20260505202720 41 278 19.1 20.9 0.00 0.00 0.00 68
20260505200719 41 279 20.0 22.6 0.00 0.00 0.00 68
20260505194719 42 281 22.6 26.1 0.00 0.00 0.00 66
20260505192719 42 280 20.0 24.3 0.00 0.00 0.00 67
20260505190719 41 257 20.9 25.2 0.00 0.00 0.00 86
20260505184718 41 256 22.6 25.2 0.00 0.00 0.00 83
20260505182719 41 256 23.5 26.9 0.00 0.00 0.00 82
20260505180718 42 255 23.5 26.1 0.00 0.00 0.00 80
20260505174718 42 252 23.5 26.9 0.00 0.00 0.00 81
20260505172718 42 250 23.5 26.9 0.00 0.00 0.00 83
20260505170718 42 253 22.6 25.2 0.00 0.00 0.00 83
20260505164718 43 253 24.3 27.8 0.00 0.00 0.00 83
20260505162718 43 253 23.5 27.8 0.00 0.00 0.00 81
20260505160718 43 253 23.5 26.9 0.00 0.00 0.00 79